FW8150 Weather Reports


Display with metric or nautical units.
time (UTC)temp
F
wind
direction
speed
MPH
gust
MPH
rain 1hr
in
rain 24hr
in
rain mn
in
humidity
%
barometer
mb
20260504050340 62 239 1.0 3.0 0.00 0.00 0.00 67 1012.6
20260504045838 62 213 1.0 3.0 0.00 0.00 0.00 66 1012.7
20260504045338 62 145 2.0 2.0 0.00 0.00 0.00 66 1012.7
20260504044835 62 241 2.0 5.0 0.00 0.00 0.00 66 1012.8
20260504044332 62 152 0.0 5.0 0.00 0.00 0.00 66 1012.9
20260504043830 63 266 1.0 4.0 0.00 0.00 0.00 66 1012.7
20260504043326 62 232 1.0 2.0 0.00 0.00 0.00 67 1012.8
20260504042824 63 237 4.0 5.0 0.00 0.00 0.00 64 1012.7
20260504042320 62 228 2.0 4.0 0.00 0.00 0.00 65 1013.0
20260504041816 63 55 1.0 5.0 0.00 0.00 0.00 64 1013.0
20260504041312 63 199 3.0 5.0 0.00 0.00 0.00 64 1013.1
20260504040809 63 103 3.0 5.0 0.00 0.00 0.00 64 1013.0
20260504040306 62 97 2.0 2.0 0.00 0.00 0.00 66 1013.0
20260504035802 63 128 2.0 4.0 0.00 0.00 0.00 64 1012.9
20260504035259 63 217 2.0 7.0 0.00 0.00 0.00 64 1013.3
20260504034756 63 144 3.0 6.0 0.00 0.00 0.00 63 1013.3
20260504034254 63 125 2.0 5.0 0.00 0.00 0.00 63 1013.3
20260504033751 63 234 2.0 2.0 0.00 0.00 0.00 63 1013.6
20260504033249 63 141 2.0 4.0 0.00 0.00 0.00 64 1013.6
20260504032745 63 230 0.0 2.0 0.00 0.00 0.00 64 1013.6
20260504032242 63 154 0.0 4.0 0.00 0.00 0.00 65 1013.6
20260504031739 63 179 1.0 3.0 0.00 0.00 0.00 65 1013.7
20260504031237 63 169 2.0 2.0 0.00 0.00 0.00 63 1013.8
20260504030732 63 142 0.0 2.0 0.00 0.00 0.00 64 1013.6
20260504030230 63 157 2.0 3.0 0.00 0.00 0.00 62 1013.7
20260504025726 64 107 2.0 3.0 0.00 0.00 0.00 62 1013.8
20260504025223 64 117 3.0 3.0 0.00 0.00 0.00 62 1013.8
20260504024720 64 88 0.0 2.0 0.00 0.00 0.00 61 1013.7
20260504024217 64 180 2.0 3.0 0.00 0.00 0.00 62 1013.7
20260504023714 64 119 0.0 4.0 0.00 0.00 0.00 60 1013.5
20260504023209 64 154 2.0 2.0 0.00 0.00 0.00 61 1013.5
20260504022706 65 163 1.0 4.0 0.00 0.00 0.00 59 1013.3
20260504022202 65 147 1.0 3.0 0.00 0.00 0.00 60 1013.3
20260504021700 65 150 3.0 4.0 0.00 0.00 0.00 59 1013.2
20260504021156 65 80 1.0 2.0 0.00 0.00 0.00 60 1013.3
20260504020653 65 199 2.0 5.0 0.00 0.00 0.00 58 1013.1
20260504020149 65 181 1.0 4.0 0.00 0.00 0.00 59 1013.1
20260504015646 65 34 0.0 2.0 0.00 0.00 0.00 58 1013.1
20260504015142 66 205 0.0 3.0 0.00 0.00 0.00 60 1013.3
20260504014638 66 105 0.0 3.0 0.00 0.00 0.00 58 1013.2
20260504014136 66 209 2.0 3.0 0.00 0.00 0.00 57 1013.2
20260504013633 66 173 1.0 3.0 0.00 0.00 0.00 57 1013.2
20260504013130 66 195 0.0 2.0 0.00 0.00 0.00 57 1013.0
20260504012627 67 217 0.0 4.0 0.00 0.00 0.00 56 1013.0
20260504012125 67 145 2.0 2.0 0.00 0.00 0.00 56 1013.0
20260504011621 67 79 2.0 2.0 0.00 0.00 0.00 56 1012.9
20260504011118 67 89 0.0 3.0 0.00 0.00 0.00 55 1012.7
20260504010614 68 149 2.0 3.0 0.00 0.00 0.00 56 1012.9
20260504010110 68 129 0.0 2.0 0.00 0.00 0.00 54 1012.9
20260504005607 68 256 0.0 1.0 0.00 0.00 0.00 55 1012.8
20260504005104 68 141 0.0 1.0 0.00 0.00 0.00 54 1012.7
20260504004602 69 69 0.0 2.0 0.00 0.00 0.00 54 1012.7
20260504004059 69 205 0.0 4.0 0.00 0.00 0.00 52 1012.8
20260504003555 70 236 2.0 3.0 0.00 0.00 0.00 54 1012.8
20260504003052 70 144 3.0 3.0 0.00 0.00 0.00 50 1012.9
20260504002548 71 102 2.0 2.0 0.00 0.00 0.00 50 1012.8
20260504002046 71 249 0.0 2.0 0.00 0.00 0.00 51 1012.7
20260504001544 72 175 2.0 5.0 0.00 0.00 0.00 48 1012.7
20260504001039 73 79 1.0 3.0 0.00 0.00 0.00 48 1012.7
20260504000537 73 202 1.0 2.0 0.00 0.00 0.00 46 1012.9
20260504000034 73 122 2.0 4.0 0.00 0.00 0.00 45 1012.8
20260503235533 74 205 2.0 9.0 0.00 0.00 0.00 44 1012.9
20260503235029 74 225 1.0 7.0 0.00 0.00 0.00 44 1012.9
20260503234527 74 88 0.0 12.0 0.00 0.00 0.00 43 1012.8
20260503234025 74 266 4.0 7.0 0.00 0.00 0.00 42 1012.8
20260503233521 74 243 4.0 9.0 0.00 0.00 0.00 43 1013.0
20260503233017 75 251 6.0 9.0 0.00 0.00 0.00 43 1012.9
20260503232514 75 258 4.0 11.0 0.00 0.00 0.00 42 1012.9
20260503232012 75 266 2.0 8.0 0.00 0.00 0.00 43 1012.9
20260503231509 75 134 3.0 8.0 0.00 0.00 0.00 43 1013.0
20260503231006 75 255 15.0 15.0 0.00 0.00 0.00 41 1013.0
20260503230503 75 249 14.0 15.0 0.00 0.00 0.00 42 1013.1
20260503230000 75 261 4.0 10.0 0.00 0.00 0.00 41 1013.2
20260503225456 76 240 14.0 18.0 0.00 0.00 0.00 39 1013.2
20260503224952 76 256 3.0 12.0 0.00 0.00 0.00 40 1013.3
20260503224449 76 226 6.0 11.0 0.00 0.00 0.00 40 1013.2
20260503223947 76 233 3.0 18.0 0.00 0.00 0.00 40 1013.2
20260503223445 77 248 10.0 12.0 0.00 0.00 0.00 40 1013.3
20260503222940 76 183 6.0 11.0 0.00 0.00 0.00 39 1013.5
20260503222439 77 249 19.0 20.0 0.00 0.00 0.00 38 1013.6
20260503221937 77 230 5.0 10.0 0.00 0.00 0.00 39 1013.6
20260503221434 76 255 11.0 14.0 0.00 0.00 0.00 39 1013.3
20260503220931 76 225 8.0 16.0 0.00 0.00 0.00 39 1013.6
20260503220427 77 238 4.0 7.0 0.00 0.00 0.00 39 1013.6
20260503215925 76 244 10.0 19.0 0.00 0.00 0.00 39 1013.7
20260503215421 76 266 6.0 16.0 0.00 0.00 0.00 38 1013.8
20260503214919 76 225 7.0 14.0 0.00 0.00 0.00 38 1013.8
20260503214416 76 257 9.0 15.0 0.00 0.00 0.00 38 1013.8
20260503213914 76 253 6.0 14.0 0.00 0.00 0.00 39 1014.1
20260503213412 77 242 10.0 10.0 0.00 0.00 0.00 39 1014.0
20260503212908 77 246 10.0 13.0 0.00 0.00 0.00 39 1014.1
20260503212406 76 241 6.0 9.0 0.00 0.00 0.00 39 1014.2
20260503211903 76 269 10.0 17.0 0.00 0.00 0.00 38 1014.4
20260503211359 76 244 13.0 14.0 0.00 0.00 0.00 37 1014.4
20260503210854 75 251 13.0 20.0 0.00 0.00 0.00 38 1014.6
20260503210352 76 239 9.0 11.0 0.00 0.00 0.00 37 1014.6
20260503205847 75 252 7.0 14.0 0.00 0.00 0.00 37 1014.7
20260503205344 75 253 10.0 15.0 0.00 0.00 0.00 37 1014.9
20260503204840 75 245 15.0 17.0 0.00 0.00 0.00 37 1014.8
20260503204338 75 254 11.0 22.0 0.00 0.00 0.00 37 1015.2
20260503203835 75 217 2.0 16.0 0.00 0.00 0.00 37 1015.0
20260503203332 76 241 9.0 14.0 0.00 0.00 0.00 35 1015.2
20260503202829 75 197 5.0 19.0 0.00 0.00 0.00 36 1015.3
20260503202327 75 259 5.0 12.0 0.00 0.00 0.00 36 1015.4
20260503201825 75 216 3.0 10.0 0.00 0.00 0.00 36 1015.3
20260503201321 76 251 10.0 14.0 0.00 0.00 0.00 36 1015.3
20260503200819 76 218 3.0 9.0 0.00 0.00 0.00 38 1015.3
20260503200315 76 249 7.0 10.0 0.00 0.00 0.00 36 1015.4
20260503195813 75 250 8.0 11.0 0.00 0.00 0.00 37 1015.6
20260503195309 75 244 13.0 17.0 0.00 0.00 0.00 36 1015.8
20260503194806 75 281 5.0 6.0 0.00 0.00 0.00 36 1015.8
20260503194302 74 227 9.0 16.0 0.00 0.00 0.00 35 1016.1
20260503193758 75 246 9.0 11.0 0.00 0.00 0.00 35 1015.9
20260503193254 76 217 5.0 11.0 0.00 0.00 0.00 35 1016.0
20260503192750 74 88 2.0 13.0 0.00 0.00 0.00 36 1016.0
20260503192245 74 259 7.0 9.0 0.00 0.00 0.00 35 1016.1
20260503191743 75 249 8.0 10.0 0.00 0.00 0.00 36 1016.2
20260503191240 74 246 13.0 17.0 0.00 0.00 0.00 35 1016.5
20260503190737 73 125 3.0 14.0 0.00 0.00 0.00 35 1016.5
20260503190233 74 257 7.0 20.0 0.00 0.00 0.00 37 1016.5
20260503185731 73 162 4.0 10.0 0.00 0.00 0.00 36 1016.4
20260503185226 73 251 12.0 13.0 0.00 0.00 0.00 33 1016.7
20260503184721 73 163 5.0 9.0 0.00 0.00 0.00 36 1016.6
20260503184217 73 155 3.0 9.0 0.00 0.00 0.00 36 1016.9
20260503183714 72 161 6.0 17.0 0.00 0.00 0.00 36 1017.1
20260503183211 72 229 11.0 18.0 0.00 0.00 0.00 34 1017.0
20260503182709 71 147 6.0 12.0 0.00 0.00 0.00 39 1017.4
20260503182208 73 235 5.0 9.0 0.00 0.00 0.00 36 1017.3
20260503181703 72 236 6.0 12.0 0.00 0.00 0.00 36 1017.3
20260503181200 71 240 10.0 14.0 0.00 0.00 0.00 36 1017.6
20260503180657 70 253 9.0 15.0 0.00 0.00 0.00 36 1017.7
20260503180156 71 174 4.0 13.0 0.00 0.00 0.00 37 1017.8
20260503175652 72 160 3.0 9.0 0.00 0.00 0.00 35 1017.9
20260503175150 71 247 5.0 7.0 0.00 0.00 0.00 38 1018.1
20260503174646 70 183 3.0 15.0 0.00 0.00 0.00 37 1018.3
20260503174143 70 177 3.0 11.0 0.00 0.00 0.00 36 1018.3
20260503173638 69 250 3.0 12.0 0.00 0.00 0.00 36 1018.6
20260503173135 69 256 6.0 15.0 0.00 0.00 0.00 37 1018.6
20260503172632 70 230 6.0 10.0 0.00 0.00 0.00 40 1018.7
20260503172129 69 267 4.0 9.0 0.00 0.00 0.00 37 1018.8
20260503171625 69 248 10.0 12.0 0.00 0.00 0.00 37 1019.0
20260503171123 68 254 2.0 9.0 0.00 0.00 0.00 39 1019.3
20260503170620 68 225 6.0 11.0 0.00 0.00 0.00 38 1019.1
20260503170116 68 260 5.0 12.0 0.00 0.00 0.00 40 1019.1
20260503151012 60 248 11.0 18.0 0.00 0.00 0.00 51 1020.5
20260503150508 61 147 3.0 8.0 0.00 0.00 0.00 52 1020.5
20260503131401 50 176 3.0 5.0 0.00 0.00 0.00 73 1021.0
20260503130858 49 151 4.0 7.0 0.00 0.00 0.00 76 1020.9
20260503130356 48 238 0.0 4.0 0.00 0.00 0.00 80 1020.9
20260503110755 35 72 1.0 2.0 0.00 0.00 0.00 98 1020.4
20260503110252 35 175 0.0 2.0 0.00 0.00 0.00 98 1020.2
20260503100219 34 134 1.0 2.0 0.00 0.00 0.00 98 1020.6
20260503090148 35 56 0.0 2.0 0.00 0.00 0.00 98 1021.0
20260503081623 36 134 4.0 4.0 0.00 0.00 0.00 97 1021.0
20260503081121 35 126 1.0 2.0 0.00 0.00 0.00 97 1020.8
20260503080616 36 149 0.0 2.0 0.00 0.00 0.00 97 1020.9
20260503080113 35 101 0.0 1.0 0.00 0.00 0.00 97 1021.0
20260503072550 36 119 0.0 2.0 0.00 0.00 0.00 96 1021.2
20260503072047 36 147 0.0 1.0 0.00 0.00 0.00 96 1021.1
20260503071544 36 135 0.0 1.0 0.00 0.00 0.00 96 1021.1
20260503071041 36 49 1.0 1.0 0.00 0.00 0.00 96 1021.1
20260503070537 37 184 0.0 1.0 0.00 0.00 0.00 96 1021.2